KLM758 MPTO-EHAM

Flight info

Callsign KLM758
Flight time N/A
Altitude 33000
Route EGETA3A EGETA DCT AGUJA UM597 LIDOL UG444 BOTES G444 GTK DCT LAMER/M083F330 DCT BALTN/M083F350 DCT QINCY DCT SOORY NATZ ATSUR/M082F370 DCT GAPLI/N0469F370 DCT GAJIT DCT ENHAQ M197 REDFA
Aircraft B77W/H-SDE2E3FGHIJ3J5P2RWXYZ/LB1D1

Departure

Time N/A
Airport Tocumen International Airport (MPTO)

Arrival

Time 2026-04-30 10:19
Airport Amsterdam Airport Schiphol (EHAM)
Time Latitude Longitude Altitude Speed Heading
2026-04-30 09:57 52.21795 2.77283 20883 ft 356 kts 62°
2026-04-30 09:57 52.23045 2.80757 20588 ft 354 kts 62°
2026-04-30 09:57 52.24291 2.84231 20301 ft 355 kts 62°
2026-04-30 09:58 52.25539 2.87718 19999 ft 356 kts 63°
2026-04-30 09:58 52.26787 2.91210 19705 ft 356 kts 63°
2026-04-30 09:58 52.28036 2.94706 19294 ft 359 kts 62°
2026-04-30 09:58 52.29292 2.98231 18868 ft 358 kts 62°
2026-04-30 09:59 52.31726 3.05065 18158 ft 347 kts 63°
2026-04-30 09:59 52.34110 3.11776 17533 ft 336 kts 62°
2026-04-30 10:00 52.36427 3.18324 16943 ft 331 kts 63°
2026-04-30 10:00 52.37582 3.21596 16642 ft 333 kts 63°
2026-04-30 10:01 52.39909 3.28200 16060 ft 335 kts 63°
2026-04-30 10:01 52.41071 3.31500 15762 ft 334 kts 63°
2026-04-30 10:01 52.42228 3.34788 15487 ft 332 kts 63°
2026-04-30 10:02 52.44482 3.41226 15396 ft 322 kts 65°
2026-04-30 10:02 52.45287 3.44628 15395 ft 321 kts 77°
2026-04-30 10:02 52.45797 3.48226 15381 ft 326 kts 79°
2026-04-30 10:02 52.46281 3.51863 15389 ft 327 kts 79°
2026-04-30 10:03 52.46768 3.55493 15375 ft 326 kts 79°
2026-04-30 10:03 52.47263 3.59110 15322 ft 323 kts 79°
2026-04-30 10:03 52.47761 3.62692 15016 ft 321 kts 79°
2026-04-30 10:03 52.48261 3.66246 14625 ft 319 kts 78°
2026-04-30 10:04 52.48759 3.69777 14224 ft 317 kts 78°
2026-04-30 10:04 52.49256 3.73288 13782 ft 315 kts 79°
2026-04-30 10:04 52.49750 3.76781 13365 ft 313 kts 79°
2026-04-30 10:04 52.50238 3.80241 12986 ft 310 kts 79°
2026-04-30 10:05 52.50722 3.83678 12576 ft 308 kts 79°
2026-04-30 10:05 52.51200 3.87068 12351 ft 300 kts 79°
2026-04-30 10:05 52.51660 3.90344 12263 ft 289 kts 79°
2026-04-30 10:05 52.52103 3.93504 12117 ft 279 kts 79°
2026-04-30 10:06 52.52532 3.96573 11917 ft 273 kts 80°
2026-04-30 10:06 52.52900 3.99587 11732 ft 265 kts 82°
2026-04-30 10:06 52.53209 4.02456 11553 ft 259 kts 82°
2026-04-30 10:06 52.53515 4.05350 11285 ft 256 kts 82°
2026-04-30 10:07 52.53817 4.08217 10975 ft 255 kts 83°
2026-04-30 10:07 52.54121 4.11082 10666 ft 254 kts 83°
2026-04-30 10:07 52.54424 4.13926 10365 ft 253 kts 83°
2026-04-30 10:07 52.54727 4.16761 10050 ft 251 kts 83°
2026-04-30 10:08 52.55028 4.19579 9725 ft 250 kts 83°
2026-04-30 10:08 52.55327 4.22384 9386 ft 249 kts 83°
2026-04-30 10:08 52.55626 4.25189 9059 ft 249 kts 83°
2026-04-30 10:08 52.55924 4.27983 8746 ft 248 kts 83°
2026-04-30 10:09 52.56220 4.30767 8430 ft 247 kts 83°
2026-04-30 10:09 52.56415 4.32608 8212 ft 247 kts 83°
2026-04-30 10:10 52.56616 4.34500 8004 ft 247 kts 83°
2026-04-30 10:10 52.56909 4.37270 7687 ft 246 kts 83°
2026-04-30 10:10 52.57202 4.40036 7391 ft 245 kts 83°
2026-04-30 10:10 52.57493 4.42790 7088 ft 244 kts 83°
2026-04-30 10:11 52.57781 4.45532 6855 ft 240 kts 83°
2026-04-30 10:11 52.58061 4.48192 6737 ft 232 kts 83°
2026-04-30 10:11 52.58337 4.50849 6224 ft 240 kts 84°
2026-04-30 10:11 52.58461 4.53520 6045 ft 230 kts 92°
2026-04-30 10:12 52.58444 4.56115 5852 ft 224 kts 94°
2026-04-30 10:12 52.58423 4.58695 5488 ft 226 kts 94°
2026-04-30 10:12 52.58412 4.61259 5264 ft 222 kts 93°
2026-04-30 10:12 52.58329 4.63737 5022 ft 212 kts 107°
2026-04-30 10:13 52.57715 4.65882 4856 ft 208 kts 125°
2026-04-30 10:13 52.56779 4.67729 4667 ft 212 kts 130°
2026-04-30 10:13 52.55789 4.69516 4456 ft 211 kts 130°
2026-04-30 10:13 52.54804 4.71294 4264 ft 210 kts 130°
2026-04-30 10:14 52.53709 4.72819 4055 ft 208 kts 150°
2026-04-30 10:14 52.52351 4.73584 3884 ft 205 kts 158°
2026-04-30 10:14 52.49739 4.74894 3621 ft 185 kts 156°
2026-04-30 10:15 52.48542 4.75415 3508 ft 174 kts 167°
2026-04-30 10:15 52.47346 4.75315 3343 ft 169 kts 174°
2026-04-30 10:15 52.46200 4.75199 3114 ft 162 kts 172°
2026-04-30 10:15 52.45115 4.75100 3009 ft 152 kts 172°
2026-04-30 10:16 52.44026 4.75008 2975 ft 163 kts 173°
2026-04-30 10:16 52.42871 4.74902 2812 ft 168 kts 174°
2026-04-30 10:16 52.41693 4.74793 2398 ft 172 kts 175°
2026-04-30 10:17 52.39327 4.74574 1790 ft 167 kts 175°
2026-04-30 10:17 52.37017 4.74356 1006 ft 154 kts 175°
2026-04-30 10:17 52.35979 4.74272 617 ft 144 kts 176°
2026-04-30 10:18 52.35319 4.74207 422 ft 142 kts 176°
2026-04-30 10:18 52.34319 4.74113 259 ft 147 kts 176°
2026-04-30 10:18 52.33326 4.74024 57 ft 138 kts 176°
2026-04-30 10:19 52.31720 4.73879 3 ft 76 kts 184°
2026-04-30 10:19 52.31369 4.73846 2 ft 27 kts 179°
2026-04-30 10:19 52.31159 4.73938 3 ft 20 kts 154°
2026-04-30 10:19 52.31119 4.74081 4 ft 15 kts 56°
2026-04-30 10:20 52.31218 4.74123 4 ft 15 kts
2026-04-30 10:20 52.31403 4.74229 4 ft 15 kts 76°
2026-04-30 10:20 52.31393 4.74400 4 ft 15 kts 92°
2026-04-30 10:21 52.31396 4.74572 4 ft 15 kts 89°
2026-04-30 10:21 52.31402 4.74745 4 ft 15 kts 87°
2026-04-30 10:21 52.31408 4.74922 4 ft 17 kts 87°
2026-04-30 10:21 52.31413 4.75138 4 ft 21 kts 88°
2026-04-30 10:22 52.31420 4.75400 4 ft 25 kts 82°
2026-04-30 10:22 52.31436 4.75692 4 ft 26 kts 87°
2026-04-30 10:22 52.31446 4.76000 4 ft 27 kts 87°
2026-04-30 10:22 52.31459 4.76288 4 ft 17 kts 88°
2026-04-30 10:23 52.31388 4.76410 4 ft 16 kts 159°
2026-04-30 10:23 52.31329 4.76419 4 ft 7 kts 214°
2026-04-30 10:23 52.31306 4.76345 4 ft 7 kts 251°
2026-04-30 10:23 52.31300 4.76314 4 ft 1 kts 253°
2026-04-30 10:24 52.31300 4.76313 4 ft 0 kts 253°